TimeEST,TemperatureF,Dew PointF,Humidity,Sea Level PressureIn,VisibilityMPH,Wind Direction,Wind SpeedMPH,Gust SpeedMPH,PrecipitationIn,Events,Conditions,WindDirDegrees,DateUTC
12:10 AM,46.4,44.6,93,30.04,1.8,Calm,Calm,-,N/A,,Overcast,0,2012-12-09 05:10:00
12:36 AM,46.4,44.6,93,30.04,2.0,Calm,Calm,-,N/A,,Overcast,0,2012-12-09 05:36:00
12:53 AM,46.9,45.0,93,30.06,2.0,Calm,Calm,-,N/A,,Overcast,0,2012-12-09 05:53:00
1:25 AM,46.4,44.6,93,30.04,1.8,Calm,Calm,-,N/A,,Mostly Cloudy,0,2012-12-09 06:25:00
1:32 AM,44.6,44.6,100,30.04,0.8,Calm,Calm,-,N/A,,Mostly Cloudy,0,2012-12-09 06:32:00
1:39 AM,42.8,42.8,100,30.04,0.5,Calm,Calm,-,N/A,Fog,Fog,0,2012-12-09 06:39:00
1:53 AM,42.1,41.0,96,30.06,0.2,Calm,Calm,-,N/A,Fog,Fog,0,2012-12-09 06:53:00
2:53 AM,39.0,37.9,96,30.08,0.2,Calm,Calm,-,N/A,Fog,Fog,0,2012-12-09 07:53:00
3:53 AM,39.0,37.9,96,30.08,0.2,Calm,Calm,-,N/A,Fog,Fog,0,2012-12-09 08:53:00
4:46 AM,39.2,39.2,100,30.09,1.2,Calm,Calm,-,N/A,,Overcast,0,2012-12-09 09:46:00
4:53 AM,41.0,39.9,96,30.11,0.8,Calm,Calm,-,N/A,,Overcast,0,2012-12-09 09:53:00
5:05 AM,41.0,39.2,93,30.10,1.2,Calm,Calm,-,0.00,Rain,Light Rain,0,2012-12-09 10:05:00
5:22 AM,41.0,39.2,93,30.12,2.0,Calm,Calm,-,0.00,,Overcast,0,2012-12-09 10:22:00
5:33 AM,42.8,39.2,87,30.12,2.5,Calm,Calm,-,0.00,,Overcast,0,2012-12-09 10:33:00
5:48 AM,42.8,41.0,93,30.13,3.0,Calm,Calm,-,0.00,Rain,Light Rain,0,2012-12-09 10:48:00
5:53 AM,42.1,41.0,96,30.15,2.5,Calm,Calm,-,0.00,Rain,Light Rain,0,2012-12-09 10:53:00
6:53 AM,43.0,42.1,97,30.16,4.0,Calm,Calm,-,0.00,Rain,Light Rain,0,2012-12-09 11:53:00
7:51 AM,44.6,42.8,93,30.18,3.0,Calm,Calm,-,0.00,Rain,Light Rain,0,2012-12-09 12:51:00
7:53 AM,44.1,43.0,96,30.20,3.0,Calm,Calm,-,0.00,Rain,Light Rain,0,2012-12-09 12:53:00
7:56 AM,44.6,42.8,93,30.18,2.5,NNE,3.5,-,0.00,Rain,Light Rain,30,2012-12-09 12:56:00
8:07 AM,44.6,42.8,93,30.19,3.0,Calm,Calm,-,0.00,Rain,Light Rain,0,2012-12-09 13:07:00
8:19 AM,44.6,42.8,93,30.19,2.5,Calm,Calm,-,N/A,Rain,Rain,0,2012-12-09 13:19:00
8:32 AM,44.6,42.8,93,30.19,3.0,Calm,Calm,-,N/A,Rain,Light Rain,0,2012-12-09 13:32:00
8:51 AM,44.6,42.8,93,30.19,4.0,ENE,4.6,-,N/A,Rain,Light Rain,70,2012-12-09 13:51:00
8:53 AM,46.0,43.0,89,30.20,4.0,ENE,3.5,-,N/A,Rain,Light Rain,60,2012-12-09 13:53:00
9:30 AM,46.4,42.8,87,30.20,3.0,NNE,3.5,-,N/A,Rain,Light Rain,20,2012-12-09 14:30:00
9:36 AM,46.4,42.8,87,30.21,3.0,Calm,Calm,-,N/A,Rain,Light Rain,0,2012-12-09 14:36:00
9:53 AM,46.0,43.0,89,30.22,3.0,ENE,4.6,-,N/A,Rain,Light Rain,60,2012-12-09 14:53:00
10:12 AM,46.4,42.8,87,30.21,4.0,ENE,9.2,-,N/A,Rain,Light Rain,70,2012-12-09 15:12:00
10:25 AM,46.4,41.0,81,30.20,6.0,East,12.7,-,N/A,Rain,Light Rain,80,2012-12-09 15:25:00
10:46 AM,44.6,41.0,87,30.20,10.0,East,8.1,-,N/A,Rain,Light Rain,80,2012-12-09 15:46:00
10:53 AM,45.0,41.0,86,30.21,10.0,East,10.4,-,N/A,,Overcast,90,2012-12-09 15:53:00
11:42 AM,44.6,41.0,87,30.17,4.0,ENE,6.9,-,N/A,Rain,Light Rain,70,2012-12-09 16:42:00
11:49 AM,44.6,41.0,87,30.17,5.0,ENE,6.9,-,N/A,Rain,Light Rain,70,2012-12-09 16:49:00
11:53 AM,44.1,39.9,85,30.19,5.0,East,6.9,-,N/A,Rain,Light Rain,80,2012-12-09 16:53:00
12:26 PM,44.6,41.0,87,30.16,2.0,ENE,4.6,-,N/A,Rain,Light Rain,70,2012-12-09 17:26:00
12:53 PM,43.0,41.0,93,30.17,3.0,NE,5.8,-,N/A,Rain,Light Rain,40,2012-12-09 17:53:00
1:12 PM,44.6,41.0,87,30.14,5.0,ENE,5.8,-,N/A,,Overcast,60,2012-12-09 18:12:00
1:29 PM,44.6,41.0,87,30.14,3.0,ENE,4.6,-,N/A,Rain,Light Rain,60,2012-12-09 18:29:00
1:37 PM,42.8,41.0,93,30.14,3.0,ENE,6.9,-,N/A,Rain,Light Rain,60,2012-12-09 18:37:00
1:53 PM,43.0,41.0,93,30.16,3.0,NE,3.5,-,N/A,,Overcast,50,2012-12-09 18:53:00
2:17 PM,42.8,41.0,93,30.14,2.5,NE,4.6,-,N/A,Rain,Light Rain,40,2012-12-09 19:17:00
2:22 PM,42.8,41.0,93,30.14,2.0,Calm,Calm,-,N/A,Rain,Light Rain,0,2012-12-09 19:22:00
2:36 PM,42.8,41.0,93,30.14,2.5,NE,3.5,-,N/A,Rain,Light Rain,50,2012-12-09 19:36:00
2:42 PM,42.8,41.0,93,30.14,1.8,NNE,4.6,-,N/A,Rain,Light Rain,30,2012-12-09 19:42:00
2:53 PM,43.0,41.0,93,30.17,1.0,Calm,Calm,-,N/A,Rain,Light Rain,0,2012-12-09 19:53:00
3:07 PM,42.8,41.0,93,30.14,1.2,NE,5.8,-,N/A,,Overcast,50,2012-12-09 20:07:00
3:28 PM,42.8,41.0,93,30.14,1.0,NE,3.5,-,N/A,Rain,Light Rain,50,2012-12-09 20:28:00
3:53 PM,43.0,41.0,93,30.15,1.2,NE,4.6,-,N/A,Rain,Light Rain,50,2012-12-09 20:53:00
4:11 PM,42.8,41.0,93,30.12,1.0,ENE,4.6,-,N/A,,Overcast,70,2012-12-09 21:11:00
4:22 PM,42.8,41.0,93,30.12,0.8,ENE,4.6,-,N/A,,Overcast,70,2012-12-09 21:22:00
4:38 PM,42.8,42.8,100,30.13,1.2,NE,3.5,-,N/A,,Overcast,50,2012-12-09 21:38:00
4:53 PM,43.0,42.1,97,30.14,1.5,NE,4.6,-,N/A,,Overcast,50,2012-12-09 21:53:00
5:53 PM,43.0,42.1,97,30.12,2.5,East,5.8,-,0.00,Rain,Light Rain,90,2012-12-09 22:53:00
6:23 PM,42.8,42.8,100,30.10,3.0,East,6.9,-,0.00,Rain,Light Rain,80,2012-12-09 23:23:00
6:53 PM,43.0,42.1,97,30.11,2.5,ENE,5.8,-,0.00,,Overcast,70,2012-12-09 23:53:00
7:20 PM,42.8,42.8,100,30.09,2.0,ENE,5.8,-,N/A,,Overcast,70,2012-12-10 00:20:00
7:28 PM,42.8,42.8,100,30.12,1.8,WNW,5.8,-,N/A,,Overcast,300,2012-12-10 00:28:00
7:53 PM,43.0,42.1,97,30.11,1.8,ENE,4.6,-,0.00,Rain,Light Rain,70,2012-12-10 00:53:00
9:53 PM,41.0,39.9,96,30.04,1.5,NE,3.5,-,0.00,,Overcast,40,2012-12-10 02:53:00
10:53 PM,42.1,41.0,96,30.03,1.5,ENE,3.5,-,N/A,,Overcast,70,2012-12-10 03:53:00
11:53 PM,42.1,41.0,96,29.99,1.5,East,4.6,-,N/A,,Overcast,90,2012-12-10 04:53:00